User: anonymous   Login
Location: Gönnheim
(49.4488°N, 8.2383°E)
Time: 00:34:28
(UTC+00:00)
Language:

SL-8 Rocket - Orbit

View from above orbital plane
View from above orbital plane
View from above satellite
View from above satellite

Ground track
Ground track

The orbit data is extracted from the following two-line orbital elements,

1 21088U 91006B   25198.49770855  .00000115  00000-0  10050-3 0  9991
2 21088  82.9441 345.0035 0021847 337.2584  85.3758 13.77464549731695
Epoch (UTC): 17 July 2025 11:56:42
Eccentricity: 0.0021847
inclination: 82.9441°
perigee height: 957 km
apogee height: 989 km
right ascension of ascending node: 345.0035°
argument of perigee: 337.2584°
revolutions per day: 13.77464549
mean anomaly at epoch: 85.3758°
orbit number at epoch: 73169

The dashed part of the orbit path shows where the satellite is in the earth's shadow,  

DLR